Location: Triton
(47.6048°N, 122.9899°W)
Time: 15:47:24
(UTC+00:00)

ARIANE 6 FM1 Upper Stage - Pass Details

Date: 15 February 2026
Orbit: 523 x 607 km, 62.0° (Epoch: 8 March)

Event Time Altitude Azimuth Distance (km) Brightness Sun altitude
Rises 04:53:54 0° 307° (NW) 2,659 7.1 -33.9°
Reaches altitude 10° 04:56:25 10° 292° (WNW) 1,768 6.0 -34.3°
Enters shadow 04:57:19 14° 282° (WNW) 1,510 5.5 -34.4°
